[[{"header":{"parameterUnit":"m.s-1","parameterCategory":1,"la1":30.2991,"la2":30.254,"lo1":-89.0895,"lo2":-89.0444,"dy":0.0017,"dx":0.0017,"nx":28,"ny":28,"refTime":"2025-09-11T03:00:00:Z","depth":0,"parameterNumber":2,"parameterNumberName":"U-component_of_WINDS"},"data":[0,0,0,0,0,0,0,0,0,0,0,0,0,0,0,0,0,0,0,0,0,0,0,0,0,0,0,0,0,0,0,0,0,0,0,0,0,0,0,0,0,0,0,0,0,0,0,0,0,0,0,0,0,0,0,0,0,0,-2.0676,-2.0677,0,-2.0766,-2.0767,-2.0768,-2.0708,-2.0705,-2.0702,-2.0699,-2.079,-2.0795,-2.08,0,0,0,0,0,0,0,0,0,0,0,0,0,-2.0451,-2.0456,-2.0676,-2.0677,-2.0678,-2.0766,-2.0767,-2.0768,-2.0708,-2.0705,-2.0701,-2.0698,-2.0788,-2.0794,-2.08,0,0,0,0,0,0,0,0,0,0,0,0,0,-2.0546,-2.0457,-2.0676,-2.0659,-2.0658,-2.0765,-2.0767,-2.0768,-2.0709,-2.0705,-2.0701,-2.0697,-2.0787,-2.0794,-2.0801,-2.0929,0,0,-2.0824,-2.0827,0,0,0,0,0,0,0,0,-2.0541,-2.0554,-2.066,-2.066,-2.066,-2.0721,-2.0721,-2.0822,-2.071,-2.069,-2.0699,-2.0695,-2.077,-2.0779,-2.0805,-2.0934,-2.0937,-2.0825,-2.0829,-2.0832,-2.0834,0,0,0,0,0,0,0,-2.0534,-2.055,-2.0711,-2.0662,-2.0662,-2.0646,-2.0655,-2.074,-2.0752,-2.0691,-2.0687,-2.0698,-2.0769,-2.0798,-2.0806,-2.0939,-2.0824,-2.0831,-2.0836,-2.0838,-2.1177,-2.1182,0,0,0,0,0,0,-2.0529,-2.0545,-2.0708,-2.0714,-2.0589,-2.0654,-2.0664,-2.0706,-2.0751,-2.0754,-2.0702,-2.0695,-2.0787,-2.0798,-2.0809,-2.0963,-2.0832,-2.0839,-2.0843,-2.1173,-2.1178,-2.1183,0,0,0,0,0,0,-2.0525,-2.0544,-2.0705,-2.0628,-2.0648,-2.0662,-2.071,-2.071,-2.0738,-2.0759,-2.0761,-2.0729,-2.0784,-2.0799,-2.09,-2.0965,-2.0843,-2.0849,-2.1167,-2.1174,-2.1181,-2.1271,0,0,0,0,0,0,-2.0518,-2.0543,-2.0592,-2.063,-2.0652,-2.0795,-2.0714,-2.0714,-2.0751,-2.0743,-2.0785,-2.0787,-2.0782,-2.0889,-2.0907,-2.0973,-2.0855,-2.1162,-2.1171,-2.1179,-2.1262,-2.128,-2.1295,0,0,0,0,0,-2.0511,-2.0614,-2.0595,-2.0615,-2.0714,-2.0799,-2.0811,-2.0803,-2.0756,-2.0806,-2.0819,-2.0786,-2.0955,-2.09,-2.092,-2.0989,-2.1158,-2.1168,-2.1178,-2.1254,-2.1276,-2.1294,0,0,0,0,0,0,-2.0583,-2.0618,-2.0598,-2.0717,-2.0755,-2.0788,-2.085,-2.0826,-2.0879,-2.0869,-2.0857,-2.0867,-2.0973,-2.0991,-2.0929,-2.1115,-2.1049,-2.1063,-2.11,-2.1121,-2.1137,-2.1131,-2.0861,0,0,0,0,0,-2.0612,-2.0679,-2.0706,-2.0808,-2.0828,-2.0836,-2.0873,-2.0864,-2.0903,-2.0919,-2.094,-2.0979,-2.104,-2.1081,-2.1139,-2.1264,-2.1272,-2.1321,-2.1337,-2.1351,-2.1364,-2.1431,-2.1453,-2.1217,-2.1217,-2.1216,0,0,-2.0674,-2.0702,-2.0745,-2.0823,-2.0852,-2.0921,-2.085,-2.0926,-2.0977,-2.093,-2.1027,-2.1044,-2.1086,-2.12,-2.1251,-2.1218,-2.1431,-2.1364,-2.1374,-2.138,-2.1444,-2.1466,-2.1486,-2.1224,-2.1222,-2.1221,0,0,-2.0823,-2.085,-2.0938,-2.0969,-2.1014,-2.1018,-2.1039,-2.1077,-2.1086,-2.1183,-2.115,-2.121,-2.1316,-2.1348,-2.1378,-2.1539,-2.151,-2.1558,-2.1644,-2.171,-2.1729,-2.1745,-2.1803,-2.1823,-2.1571,-2.1571,-2.1571,0,-2.0894,-2.0997,-2.0987,-2.1065,-2.1101,-2.1062,-2.1151,-2.118,-2.1242,-2.1267,-2.1229,-2.1363,-2.1388,-2.1509,-2.1548,-2.1574,-2.1598,-2.1554,-2.1727,-2.1743,-2.1758,-2.1813,-2.1835,-2.1576,-2.1576,-2.1575,-2.1575,0,-2.1083,-2.1154,-2.122,-2.1281,-2.1324,-2.1407,-2.1409,-2.1453,-2.144,-2.1449,-2.1548,-2.1578,-2.1641,-2.1669,-2.1657,-2.1788,-2.1766,-2.1728,-2.1661,-2.1787,-2.1838,-2.1859,-2.1584,-2.1582,-2.1581,-2.1579,0,0,-2.1279,-2.1333,-2.1358,-2.1385,-2.1432,-2.1487,-2.1568,-2.163,-2.1669,-2.1712,-2.178,-2.1871,-2.1836,-2.1871,-2.1861,-2.1919,-2.2045,-2.1874,-2.1874,-2.1905,-2.2192,-2.2221,-2.2245,-2.2026,-2.203,-2.2033,-2.2188,0,-2.143,-2.1573,-2.1566,-2.17,-2.1766,-2.173,-2.1801,-2.1837,-2.1847,-2.1904,-2.1914,-2.198,-2.1928,-2.1949,-2.2004,-2.2018,-2.2102,-2.2006,-2.2089,-2.2092,-2.208,-2.2272,-2.2303,-2.2448,-2.2208,-2.2212,-2.2214,0,-2.1626,-2.1677,-2.1817,-2.1854,-2.1882,-2.1946,-2.2003,-2.2058,-2.2098,-2.2101,-2.214,-2.2121,-2.2203,-2.2133,-2.2246,-2.2181,-2.2214,-2.2226,-2.2231,-2.2239,-2.2161,-2.2285,-2.2494,-2.2516,-2.2245,-2.2243,-2.2241,0,-2.1756,-2.1859,-2.1957,-2.1981,-2.2027,-2.2073,-2.2093,-2.2129,-2.2167,-2.2217,-2.2241,-2.23,-2.2332,-2.2377,-2.2374,-2.2324,-2.2489,-2.2419,-2.2494,-2.2494,-2.253,-2.2528,-2.2748,-2.2551,-2.2551,-2.255,-2.255,0,-2.1926,-2.2013,-2.2016,-2.2076,-2.2173,-2.2164,-2.226,-2.2275,-2.2308,-2.237,-2.2342,-2.2401,-2.2394,-2.2453,-2.2451,-2.2545,-2.2559,-2.2564,-2.2563,-2.2567,-2.2567,-2.2589,-2.2579,-2.2556,-2.2555,-2.2554,-2.2553,0,-2.2088,-2.2093,-2.2197,-2.2232,-2.2242,-2.2312,-2.2341,-2.2398,-2.2406,-2.2485,-2.2503,-2.2515,-2.2583,-2.2584,-2.2662,-2.2661,-2.2776,-2.2763,-2.2763,-2.276,-2.2835,-2.2828,-2.3077,-2.311,-2.2892,-2.2894,-2.2895,0,-2.2196,-2.2263,-2.2305,-2.2345,-2.2369,-2.2433,-2.2472,-2.2466,-2.2507,-2.2558,-2.2609,-2.2674,-2.2726,-2.2837,-2.2852,-2.2911,-2.29,-2.2983,-2.2908,-2.2911,-2.2901,-2.2898,-2.2904,-2.2998,-2.3,-2.3002,-2.3004,0,-2.2388,-2.2387,-2.2445,-2.2504,-2.2552,-2.2597,-2.264,-2.2674,-2.2672,-2.272,-2.279,-2.2831,-2.291,-2.2976,-2.3034,-2.3054,-2.3029,-2.3027,-2.3047,-2.3053,-2.305,-2.3053,-2.2803,-2.3021,-2.302,-2.3018,-2.3017,-2.3017,-2.2526,-2.2584,-2.2623,-2.2688,-2.272,-2.276,-2.2815,-2.283,-2.2888,-2.2953,-2.2945,-2.3023,-2.3061,-2.3136,-2.3162,-2.3222,-2.3193,-2.3223,-2.323,-2.3238,-2.3246,-2.304,-2.3232,-2.3232,-2.3231,-2.3231,-2.323,0,-2.2717,-2.2741,-2.2801,-2.2862,-2.2913,-2.2885,-2.293,-2.2975,-2.3044,-2.3082,-2.3134,-2.3214,-2.3277,-2.3298,-2.3359,-2.3403,-2.3393,-2.342,-2.3416,-2.3422,-2.3268,-2.3245,-2.3427,-2.3427,-2.3427,-2.3427,-2.3427,-2.3427,-2.2823,-2.2919,-2.2923,-2.3034,-2.3057,-2.3133,-2.3162,-2.3199,-2.3229,-2.332,-2.3373,-2.3386,-2.3417,-2.348,-2.3537,-2.3541,-2.3565,-2.3596,-2.3596,-2.3452,-2.3432,-2.3414,-2.3391,-2.3601,-2.3602,-2.3744,-2.3746,-2.3747]},{"header":{"parameterUnit":"m.s-1","parameterCategory":1,"la1":30.2991,"la2":30.254,"lo1":-89.0895,"lo2":-89.0444,"dy":0.0017,"dx":0.0017,"nx":28,"ny":28,"refTime":"2025-09-11T03:00:00:Z","depth":0,"parameterNumber":3,"parameterNumberName":"V-component_of_WINDS"},"data":[0,0,0,0,0,0,0,0,0,0,0,0,0,0,0,0,0,0,0,0,0,0,0,0,0,0,0,0,0,0,0,0,0,0,0,0,0,0,0,0,0,0,0,0,0,0,0,0,0,0,0,0,0,0,0,0,0,0,-2.9978,-2.9978,0,-2.9996,-2.9996,-2.9996,-2.9947,-2.9946,-2.9944,-2.9943,-2.996,-2.9962,-2.9964,0,0,0,0,0,0,0,0,0,0,0,0,0,-2.99,-2.9902,-2.9978,-2.9978,-2.9978,-2.9996,-2.9996,-2.9996,-2.9947,-2.9946,-2.9944,-2.9942,-2.996,-2.9962,-2.9964,0,0,0,0,0,0,0,0,0,0,0,0,0,-2.9928,-2.9902,-2.9978,-2.9956,-2.9954,-2.9996,-2.9996,-2.9996,-2.9948,-2.9946,-2.9943,-2.9941,-2.9959,-2.9962,-2.9964,-3.0027,0,0,-2.9973,-2.9974,0,0,0,0,0,0,0,0,-2.9926,-2.993,-2.9959,-2.9958,-2.9956,-2.9967,-2.9975,-3.0007,-2.9948,-2.995,-2.9943,-2.994,-2.9964,-2.9966,-2.9975,-3.0028,-3.0029,-2.9973,-2.9975,-2.9976,-2.9977,0,0,0,0,0,0,0,-2.9924,-2.9929,-2.9985,-2.996,-2.9958,-2.9945,-2.9946,-2.9981,-2.997,-2.995,-2.9947,-2.9949,-2.9963,-2.9972,-2.9975,-3.0029,-2.9973,-2.9976,-2.9977,-2.9978,-3.0133,-3.0135,0,0,0,0,0,0,-2.9925,-2.9928,-2.9984,-2.9985,-2.9935,-2.9948,-2.995,-2.9966,-2.9969,-2.9968,-2.9951,-2.9947,-2.9968,-2.9972,-2.9975,-3.0048,-2.9976,-2.9979,-2.998,-3.013,-3.0133,-3.0136,0,0,0,0,0,0,-2.9924,-2.9931,-2.9984,-2.9956,-2.9962,-2.9952,-2.997,-2.9967,-2.9976,-2.997,-2.9968,-2.9963,-2.9967,-2.9971,-3.0014,-3.0048,-2.998,-2.9983,-3.0127,-3.0131,-3.0135,-3.0194,0,0,0,0,0,0,-2.9922,-2.9931,-2.9955,-2.9957,-2.9963,-3.0023,-2.9972,-2.9969,-2.9982,-2.9976,-2.998,-2.9979,-2.9965,-3.001,-3.0017,-3.005,-2.9985,-3.0124,-3.0129,-3.0133,-3.0189,-3.02,-3.0208,0,0,0,0,0,-2.9919,-2.9971,-2.9956,-2.9964,-2.9994,-3.0025,-3.0029,-3.0012,-2.9984,-3.0008,-3.0004,-2.9979,-3.0043,-3.0015,-3.0022,-3.0057,-3.0122,-3.0128,-3.0133,-3.0185,-3.0198,-3.0208,0,0,0,0,0,0,-2.9974,-2.9971,-2.9955,-3.0009,-3.0018,-3.0017,-3.0047,-3.0026,-3.0043,-3.0037,-3.0016,-3.0017,-3.0064,-3.0065,-3.0034,-3.0117,-3.0078,-3.0085,-3.0115,-3.0127,-3.0136,-3.0135,-2.9987,0,0,0,0,0,-2.9992,-3.0019,-3.0015,-3.0063,-3.0068,-3.0057,-3.007,-3.0056,-3.0064,-3.0068,-3.0067,-3.0075,-3.0097,-3.0112,-3.0132,-3.0189,-3.0189,-3.0216,-3.0226,-3.0234,-3.024,-3.0269,-3.0281,-3.0154,-3.0154,-3.0153,0,0,-3.0031,-3.0032,-3.0051,-3.0074,-3.0079,-3.0106,-3.006,-3.0091,-3.0111,-3.0072,-3.0113,-3.0112,-3.012,-3.017,-3.0192,-3.0172,-3.0275,-3.0241,-3.0247,-3.0249,-3.0276,-3.0288,-3.0299,-3.0157,-3.0157,-3.0156,0,0,-3.0114,-3.0119,-3.0159,-3.0164,-3.0172,-3.0164,-3.0174,-3.0176,-3.0174,-3.0214,-3.0185,-3.0208,-3.0246,-3.0253,-3.0261,-3.0345,-3.0322,-3.0352,-3.0402,-3.043,-3.044,-3.0449,-3.0478,-3.0489,-3.0359,-3.0359,-3.0359,0,-3.0161,-3.0201,-3.0182,-3.0214,-3.0225,-3.0191,-3.0231,-3.0237,-3.0251,-3.0259,-3.0237,-3.0283,-3.0286,-3.0337,-3.0357,-3.0365,-3.0375,-3.0352,-3.044,-3.0449,-3.0457,-3.0484,-3.0495,-3.0362,-3.0362,-3.0361,-3.0361,0,-3.0257,-3.0285,-3.0316,-3.033,-3.0344,-3.0381,-3.0366,-3.0383,-3.0367,-3.0361,-3.0401,-3.0404,-3.0423,-3.0434,-3.042,-3.0482,-3.0469,-3.0444,-3.0404,-3.0473,-3.0498,-3.0509,-3.0367,-3.0366,-3.0365,-3.0364,0,0,-3.0377,-3.0379,-3.039,-3.0396,-3.0401,-3.0422,-3.0456,-3.0474,-3.0488,-3.0499,-3.0526,-3.0558,-3.0535,-3.0544,-3.053,-3.0555,-3.062,-3.0526,-3.0526,-3.0543,-3.0688,-3.0706,-3.0719,-3.0605,-3.0607,-3.0608,-3.0687,0,-3.0458,-3.0516,-3.0499,-3.0557,-3.0582,-3.0549,-3.0578,-3.0585,-3.0579,-3.0599,-3.0593,-3.0616,-3.0584,-3.0589,-3.0612,-3.0607,-3.0649,-3.0601,-3.0629,-3.063,-3.0628,-3.0732,-3.0752,-3.0826,-3.0696,-3.0698,-3.0699,0,-3.0562,-3.0576,-3.0636,-3.0636,-3.0645,-3.0672,-3.0686,-3.0706,-3.0712,-3.0706,-3.0716,-3.0696,-3.0728,-3.0688,-3.0732,-3.07,-3.071,-3.0709,-3.0712,-3.0713,-3.0669,-3.0736,-3.0849,-3.086,-3.0715,-3.0714,-3.0713,0,-3.0642,-3.0676,-3.0715,-3.0721,-3.0722,-3.0741,-3.0742,-3.0746,-3.0758,-3.077,-3.0777,-3.0794,-3.0803,-3.0815,-3.08,-3.0773,-3.0846,-3.0805,-3.0841,-3.0842,-3.0858,-3.0857,-3.0974,-3.0866,-3.0866,-3.0865,-3.0865,0,-3.0735,-3.0773,-3.0751,-3.0776,-3.0817,-3.0796,-3.0837,-3.0835,-3.0838,-3.0861,-3.0834,-3.0856,-3.0834,-3.0854,-3.0843,-3.088,-3.0884,-3.088,-3.0876,-3.0882,-3.0883,-3.0889,-3.0883,-3.0868,-3.0868,-3.0867,-3.0866,0,-3.0831,-3.0819,-3.086,-3.0857,-3.0857,-3.0887,-3.0884,-3.0906,-3.0899,-3.0928,-3.0934,-3.0922,-3.0943,-3.0929,-3.0952,-3.0944,-3.0992,-3.0982,-3.099,-3.0987,-3.1024,-3.1021,-3.1149,-3.1164,-3.1046,-3.1047,-3.1048,0,-3.0891,-3.092,-3.0919,-3.0932,-3.0935,-3.0957,-3.0968,-3.0949,-3.0961,-3.0969,-3.099,-3.1009,-3.1024,-3.106,-3.1053,-3.107,-3.1059,-3.1103,-3.1061,-3.1066,-3.1059,-3.1057,-3.1059,-3.1111,-3.1112,-3.1114,-3.1115,0,-3.0999,-3.099,-3.1008,-3.1023,-3.1037,-3.1048,-3.1056,-3.1068,-3.1048,-3.1064,-3.1086,-3.1097,-3.1119,-3.1138,-3.1152,-3.1152,-3.113,-3.1127,-3.1137,-3.1143,-3.1146,-3.1144,-3.1012,-3.1125,-3.1124,-3.1123,-3.1122,-3.1122,-3.1078,-3.1101,-3.1104,-3.1124,-3.1128,-3.1136,-3.1156,-3.115,-3.1168,-3.1184,-3.1171,-3.1197,-3.12,-3.1216,-3.1219,-3.1239,-3.1221,-3.1235,-3.1238,-3.1241,-3.1246,-3.1143,-3.1241,-3.1241,-3.1241,-3.124,-3.124,0,-3.1184,-3.1183,-3.1202,-3.1214,-3.1229,-3.1206,-3.1214,-3.1228,-3.1251,-3.1256,-3.127,-3.1294,-3.1312,-3.1306,-3.1322,-3.1339,-3.1329,-3.1344,-3.1342,-3.1342,-3.1262,-3.1252,-3.1351,-3.1351,-3.1351,-3.1351,-3.1351,-3.1351,-3.124,-3.1277,-3.1269,-3.1307,-3.1307,-3.1331,-3.1337,-3.1344,-3.1348,-3.1376,-3.1391,-3.1386,-3.1387,-3.1402,-3.1417,-3.1415,-3.1422,-3.144,-3.1434,-3.1359,-3.1348,-3.1338,-3.1328,-3.1442,-3.1442,-3.1513,-3.1514,-3.1514]}]]